Regional Weather Roundup
Issued by NWS

Home | Current Version | Previous Version | Graphics & Text | Print | Product List | Glossary On
Versions: 1 2 3 4 5 6 7 8 9 10 11 12 13 14 15 16 17 18 19 20 21 22 23 24 25 26 27 28 29 30 31 32 33 34 35 36 37 38 39 40 41 42 43 44 45 46 47 48 49 50
915
ASUS43 KOAX 262302
RWRNE

WEATHER ROUNDUP FOR NEBRASKA
NATIONAL WEATHER SERVICE OMAHA NE
600 PM CDT WED APR 26 2017

NOTES: SATELLITE DATA IS BEING USED TO AUGMENT CLOUD COVER ABOVE
       12000 FEET.
       "FAIR" INDICATES FEW OR NO CLOUDS BELOW 12,000 FEET WITH NO
       SIGNIFICANT WEATHER AND/OR OBSTRUCTIONS TO VISIBILITY.

  * THESE STATIONS DO NOT REPORT WEATHER SUCH AS RAIN...SNOW OR FOG.

NEZ001>004-019>022-054>056-270000-
NEBRASKA PANHANDLE

CITY           SKY/WX    TMP DP  RH WIND       PRES   REMARKS
SCOTTSBLUFF    PTSUNNY   60  31  33 N8        29.65S
ALLIANCE       SUNNY     53  33  46 NE13      29.66F
CHADRON        SUNNY     46  32  58 NE13      29.70F
KIMBALL        CLOUDY    50  35  55 E3        29.68F
SIDNEY         CLOUDY    54  30  40 E6        29.67F
$$

NEZ057>060-069>072-079>082-270000-
SOUTHWEST NEBRASKA

CITY           SKY/WX    TMP DP  RH WIND       PRES   REMARKS
NORTH PLATTE   SUNNY     53  31  42 N12       29.71S
IMPERIAL       SUNNY     58  29  33 NW6       29.69F
LEXINGTON      SUNNY     50  32  50 N14       29.71S
MCCOOK         SUNNY     56  28  34 N10G23    29.69F
OGALLALA       SUNNY     58  28  32 N12       29.68F
$$

NEZ005>010-023>029-035>040-094-270000-
NORTH CENTRAL NEBRASKA

CITY           SKY/WX    TMP DP  RH WIND       PRES   REMARKS
VALENTINE      CLOUDY    43  27  53 N14       29.73F
AINSWORTH      CLOUDY    40  30  69 N18       29.73S WCI  31
BROKEN BOW     PTSUNNY   46  30  53 N13G21    29.71F
O`NEILL        CLOUDY    43  28  56 NW17      29.71F
ORD            CLOUDY    42  30  62 N17       29.71F
THEDFORD       SUNNY     46  30  53 N13G18    29.73S
$$

NEZ041-046>049-061>064-073>077-083>087-270000-
SOUTH CENTRAL NEBRASKA

CITY           SKY/WX    TMP DP  RH WIND       PRES   REMARKS
GRAND ISLAND   CLOUDY    44  31  60 NW18      29.70F
AURORA         CLOUDY    45  31  58 N20G25    29.69F
HASTINGS       PTSUNNY   45  30  55 N18       29.71F
HEBRON         CLOUDY    48  32  54 N14G21    29.68F
HOLDREGE       MOSUNNY   48  31  52 N13G18    29.71S
KEARNEY *      PTSUNNY   46  28  49 N20       29.71F
YORK           CLOUDY    46  32  57 NW13G18   29.68S
$$

NEZ011>018-030>034-042>045-270000-
NORTHEAST NEBRASKA

CITY           SKY/WX    TMP DP  RH WIND       PRES   REMARKS
NORFOLK        CLOUDY    42  31  64 NW16G23   29.67S
ALBION         CLOUDY    43  31  63 NW15G24   29.69F
BLAIR          CLOUDY    41  33  73 NW17G23   29.64F
FREMONT        CLOUDY    42  33  69 NW16G24   29.68S
TEKAMAH        CLOUDY    43  32  65 NW20      29.66F
WAYNE          CLOUDY    39  33  78 NW20G25   29.68S WCI  30
$$

NEZ050>053-065>068-078-088>093-270000-
SOUTHEAST NEBRASKA

CITY           SKY/WX    TMP DP  RH WIND       PRES   REMARKS
LINCOLN        CLOUDY    45  33  63 NW13      29.69S
OMAHA EPPLEY   CLOUDY    43  32  65 NW15G23   29.65S
BEATRICE       CLOUDY    46  35  66 N13       29.66S
FALLS CITY     CLOUDY    45  34  65 N14G22    29.63S
NEBRASKA CITY  CLOUDY    43  31  62 N17       29.65S
PLATTSMOUTH    CLOUDY    42  30  62 NW17G23   29.65S
$$

NEZ044-045-051>053-067-270000-
OMAHA AREA

CITY           SKY/WX    TMP DP  RH WIND       PRES   REMARKS
OMAHA EPPLEY   CLOUDY    43  32  65 NW15G23   29.65S
BLAIR          CLOUDY    41  33  73 NW17G23   29.64F
FREMONT        CLOUDY    42  33  69 NW16G24   29.68S
MILLARD        CLOUDY    44  34  67 NW13G21   29.66S
OFFUTT AFB     CLOUDY    42  32  67 NW14G23   29.65S
PLATTSMOUTH    CLOUDY    42  30  62 NW17G23   29.65S
WAHOO          CLOUDY    43  32  66 N18       29.67S
$$




USA.gov is the U.S. government's official web portal to all federal, state and local government web resources and services.